K5NCO Weather Reports


time (UTC)temp
C
wind
direction
speed
KPH
gust
KPH
rain 1hr
cm
rain 24hr
cm
rain mn
cm
humidity
%
barometer
mb
20260504230455 27 178 12.9 17.7 0.00 0.00 0.00 63 1010.6
20260504225955 26 171 22.5 29.0 0.00 0.00 0.00 62 1010.6
20260504225451 27 130 8.0 14.5 0.00 0.00 0.00 63 1010.8
20260504224948 27 131 17.7 24.1 0.00 0.00 0.00 63 1010.9
20260504224445 27 174 17.7 22.5 0.00 0.00 0.00 62 1011.0
20260504223942 27 224 9.7 14.5 0.00 0.00 0.00 62 1010.9
20260504223438 27 182 16.1 20.9 0.00 0.00 0.00 61 1010.9
20260504222933 27 217 14.5 17.7 0.00 0.00 0.00 61 1010.6
20260504222432 27 187 19.3 27.4 0.00 0.00 0.00 62 1011.1
20260504221929 27 165 25.7 33.8 0.00 0.00 0.00 61 1011.0
20260504221426 27 127 12.9 22.5 0.00 0.00 0.00 62 1011.1
20260504220923 27 194 12.9 16.1 0.00 0.00 0.00 62 1011.1
20260504220419 27 128 6.4 9.7 0.00 0.00 0.00 63 1010.9
20260504215916 27 196 12.9 14.5 0.00 0.00 0.00 63 1011.0
20260504215413 27 187 17.7 24.1 0.00 0.00 0.00 61 1011.1
20260504214909 27 196 14.5 20.9 0.00 0.00 0.00 62 1011.1
20260504214406 26 164 17.7 24.1 0.00 0.00 0.00 62 1011.1
20260504213903 26 149 12.9 20.9 0.00 0.00 0.00 63 1011.1
20260504213359 26 215 6.4 9.7 0.00 0.00 0.00 63 1011.3
20260504212856 26 228 12.9 14.5 0.00 0.00 0.00 63 1011.4
20260504212352 26 145 16.1 22.5 0.00 0.00 0.00 62 1011.6
20260504211850 26 191 16.1 20.9 0.00 0.00 0.00 62 1011.6
20260504211346 26 180 9.7 12.9 0.00 0.00 0.00 62 1011.8
20260504210844 26 197 16.1 20.9 0.00 0.00 0.00 62 1011.9
20260504210340 26 178 6.4 14.5 0.00 0.00 0.00 63 1011.9
20260504205837 27 132 8.0 12.9 0.00 0.00 0.00 62 1012.3
20260504205335 26 187 17.7 22.5 0.00 0.00 0.00 62 1012.2
20260504204833 26 169 19.3 24.1 0.00 0.00 0.00 61 1012.3
20260504204331 26 173 16.1 24.1 0.00 0.00 0.00 62 1012.3
20260504203830 26 195 16.1 16.1 0.00 0.00 0.00 61 1012.3
20260504203327 26 205 8.0 11.3 0.00 0.00 0.00 61 1012.2
20260504202822 26 190 14.5 16.1 0.00 0.00 0.00 61 1012.6
20260504202320 26 131 9.7 11.3 0.00 0.00 0.00 62 1012.7
20260504201817 26 174 11.3 11.3 0.00 0.00 0.00 62 1012.7
20260504201314 26 181 14.5 16.1 0.00 0.00 0.00 60 1012.8
20260504200812 26 192 17.7 24.1 0.00 0.00 0.00 62 1012.9
20260504200308 26 153 17.7 20.9 0.00 0.00 0.00 62 1013.0
20260504195804 26 179 8.0 11.3 0.00 0.00 0.00 63 1013.1
20260504195300 26 198 17.7 20.9 0.00 0.00 0.00 61 1013.1
20260504194757 26 183 12.9 14.5 0.00 0.00 0.00 61 1013.4
20260504194253 26 176 20.9 29.0 0.00 0.00 0.00 62 1013.4
20260504193749 26 148 17.7 24.1 0.00 0.00 0.00 62 1013.7
20260504193247 26 186 6.4 9.7 0.00 0.00 0.00 63 1013.6
20260504192745 25 203 14.5 16.1 0.00 0.00 0.00 63 1013.6
20260504192243 25 184 16.1 20.9 0.00 0.00 0.00 64 1013.9
20260504191742 26 187 8.0 11.3 0.00 0.00 0.00 62 1013.8
20260504191238 25 211 9.7 11.3 0.00 0.00 0.00 64 1014.0
20260504190733 25 199 16.1 22.5 0.00 0.00 0.00 63 1014.1
20260504190230 25 176 19.3 22.5 0.00 0.00 0.00 63 1014.1
20260504185726 25 175 20.9 30.6 0.00 0.00 0.00 64 1014.0
20260504185224 25 151 22.5 29.0 0.00 0.00 0.00 64 1014.2
20260504184720 25 174 22.5 25.7 0.00 0.00 0.00 64 1014.2
20260504184216 25 195 14.5 20.9 0.00 0.00 0.00 65 1014.2
20260504183711 25 172 14.5 22.5 0.00 0.00 0.00 65 1014.4
20260504183209 25 183 12.9 14.5 0.00 0.00 0.00 67 1014.4
20260504182707 25 184 14.5 16.1 0.00 0.00 0.00 66 1014.6
20260504182204 24 181 12.9 12.9 0.00 0.00 0.00 67 1014.7
20260504181701 24 109 9.7 11.3 0.00 0.00 0.00 67 1014.8
20260504181159 24 169 9.7 17.7 0.00 0.00 0.00 68 1014.7
20260504180658 24 135 8.0 12.9 0.00 0.00 0.00 68 1014.9
20260504180156 24 135 9.7 12.9 0.00 0.00 0.00 67 1015.0
20260504175653 23 167 11.3 17.7 0.00 0.00 0.00 68 1014.9
20260504175149 23 179 16.1 17.7 0.00 0.00 0.00 69 1015.2
20260504174648 23 137 19.3 25.7 0.00 0.00 0.00 70 1015.2
20260504174144 23 114 14.5 17.7 0.00 0.00 0.00 70 1015.2
20260504173641 23 195 20.9 27.4 0.00 0.00 0.00 71 1015.5
20260504173138 22 210 11.3 14.5 0.00 0.00 0.00 71 1015.6
20260504172635 22 192 12.9 17.7 0.00 0.00 0.00 72 1015.8
20260504172131 22 121 19.3 24.1 0.00 0.00 0.00 72 1015.7
20260504171628 22 200 16.1 22.5 0.00 0.00 0.00 73 1015.9
20260504171125 22 145 19.3 20.9 0.00 0.00 0.00 72 1016.0
20260504170621 22 210 11.3 17.7 0.00 0.00 0.00 71 1015.8
20260504170119 22 189 14.5 17.7 0.00 0.00 0.00 70 1015.9
20260504151004 20 157 22.5 25.7 0.00 0.00 0.00 75 1016.6
20260504150502 21 163 14.5 17.7 0.00 0.00 0.00 75 1016.5
20260504140928 18 208 11.3 12.9 0.00 0.00 0.00 77 1016.7
20260504140424 18 217 9.7 11.3 0.00 0.00 0.00 77 1016.7
20260504130349 17 115 6.4 9.7 0.00 0.00 0.00 81 1016.6
20260504120312 16 190 3.2 4.8 0.00 0.00 0.00 84 1015.8
20260504110236 16 173 9.7 12.9 0.00 0.00 0.00 82 1016.1
20260504100154 16 147 8.0 9.7 0.00 0.00 0.00 81 1016.5
20260504090117 16 173 16.1 20.9 0.00 0.00 0.00 79 1016.7
20260504081547 17 200 8.0 11.3 0.00 0.00 0.00 77 1016.9
20260504081043 17 212 4.8 4.8 0.00 0.00 0.00 76 1017.0
20260504080540 17 172 12.9 14.5 0.00 0.00 0.00 76 1016.8
20260504050352 18 143 8.0 9.7 0.00 0.00 0.00 66 1019.0
20260504045849 18 203 6.4 6.4 0.00 0.00 0.00 65 1019.0
20260504045344 18 157 9.7 14.5 0.00 0.00 0.00 65 1018.9
20260504044841 18 209 11.3 14.5 0.00 0.00 0.00 64 1019.1
20260504044339 18 188 12.9 20.9 0.00 0.00 0.00 63 1019.2
20260504043836 19 118 6.4 11.3 0.00 0.00 0.00 63 1019.3
20260504043333 19 162 6.4 6.4 0.00 0.00 0.00 62 1019.1
20260504042830 19 140 12.9 17.7 0.00 0.00 0.00 61 1019.0
20260504042326 19 151 8.0 11.3 0.00 0.00 0.00 61 1019.1
20260504041823 19 149 9.7 12.9 0.00 0.00 0.00 60 1019.2
20260504041319 20 163 12.9 20.9 0.00 0.00 0.00 59 1019.3
20260504040815 20 153 8.0 11.3 0.00 0.00 0.00 58 1019.3
20260504040313 20 98 12.9 16.1 0.00 0.00 0.00 57 1019.2
20260504035809 20 154 16.1 17.7 0.00 0.00 0.00 56 1019.4
20260504035306 20 101 9.7 14.5 0.00 0.00 0.00 56 1019.2
20260504034803 20 155 16.1 17.7 0.00 0.00 0.00 55 1019.2
20260504034301 20 133 8.0 11.3 0.00 0.00 0.00 54 1019.2
20260504033758 20 151 6.4 6.4 0.00 0.00 0.00 54 1019.4
20260504033256 20 156 4.8 9.7 0.00 0.00 0.00 54 1019.0
20260504032752 20 114 6.4 9.7 0.00 0.00 0.00 55 1019.1
20260504032249 20 98 4.8 4.8 0.00 0.00 0.00 55 1019.0
20260504031746 20 157 3.2 4.8 0.00 0.00 0.00 55 1019.0
20260504031243 20 148 4.8 4.8 0.00 0.00 0.00 55 1019.1
20260504030739 20 145 4.8 4.8 0.00 0.00 0.00 55 1019.0
20260504030237 20 135 3.2 4.8 0.00 0.00 0.00 55 1019.0
20260504025733 20 117 3.2 3.2 0.00 0.00 0.00 54 1019.0
20260504025230 20 109 3.2 3.2 0.00 0.00 0.00 54 1018.8
20260504024727 20 108 1.6 3.2 0.00 0.00 0.00 53 1019.2
20260504024223 20 153 3.2 3.2 0.00 0.00 0.00 52 1018.9
20260504023720 21 95 3.2 4.8 0.00 0.00 0.00 51 1019.1
20260504023216 21 136 3.2 3.2 0.00 0.00 0.00 50 1018.8
20260504022712 21 155 4.8 4.8 0.00 0.00 0.00 49 1018.9
20260504022208 21 136 3.2 4.8 0.00 0.00 0.00 49 1019.0
20260504021706 21 156 6.4 6.4 0.00 0.00 0.00 48 1019.2
20260504021203 21 156 3.2 3.2 0.00 0.00 0.00 48 1019.0
20260504020700 21 118 4.8 6.4 0.00 0.00 0.00 48 1018.8
20260504020155 21 161 3.2 4.8 0.00 0.00 0.00 47 1018.8
20260504015652 21 167 4.8 4.8 0.00 0.00 0.00 46 1018.5
20260504015149 22 121 1.6 3.2 0.00 0.00 0.00 46 1018.4
20260504014644 22 148 4.8 6.4 0.00 0.00 0.00 45 1018.4
20260504014142 22 153 4.8 4.8 0.00 0.00 0.00 45 1018.5
20260504013640 22 144 4.8 4.8 0.00 0.00 0.00 44 1018.5
20260504013136 22 127 4.8 4.8 0.00 0.00 0.00 44 1018.3
20260504012633 22 147 3.2 4.8 0.00 0.00 0.00 43 1018.5
20260504012132 22 157 4.8 4.8 0.00 0.00 0.00 43 1018.3
20260504011628 22 160 4.8 4.8 0.00 0.00 0.00 42 1018.6
20260504011125 22 143 6.4 9.7 0.00 0.00 0.00 42 1018.6
20260504010620 22 133 8.0 9.7 0.00 0.00 0.00 41 1018.4
20260504010116 23 136 4.8 4.8 0.00 0.00 0.00 42 1018.5
20260504005613 23 179 9.7 14.5 0.00 0.00 0.00 41 1018.5
20260504005110 23 145 6.4 6.4 0.00 0.00 0.00 41 1018.4
20260504004608 23 140 9.7 12.9 0.00 0.00 0.00 41 1018.4
20260504004105 23 191 6.4 11.3 0.00 0.00 0.00 41 1018.5
20260504003601 23 152 9.7 11.3 0.00 0.00 0.00 41 1018.5
20260504003058 23 130 9.7 11.3 0.00 0.00 0.00 42 1018.5
20260504002555 23 121 4.8 4.8 0.00 0.00 0.00 42 1018.5
20260504002053 23 130 6.4 6.4 0.00 0.00 0.00 42 1018.8
20260504001550 23 162 8.0 9.7 0.00 0.00 0.00 41 1018.7
20260504001046 23 186 9.7 12.9 0.00 0.00 0.00 42 1018.6
20260504000543 23 204 3.2 4.8 0.00 0.00 0.00 43 1018.9
20260504000041 23 91 6.4 9.7 0.00 0.00 0.00 43 1018.9
20260503235539 23 167 9.7 11.3 0.00 0.00 0.00 42 1019.0
20260503235036 23 182 12.9 17.7 0.00 0.00 0.00 41 1018.9
20260503234533 24 203 9.7 12.9 0.00 0.00 0.00 42 1018.9
20260503234031 24 115 8.0 11.3 0.00 0.00 0.00 41 1018.9
20260503233527 24 110 3.2 4.8 0.00 0.00 0.00 42 1019.0
20260503233023 24 174 6.4 6.4 0.00 0.00 0.00 42 1019.0
20260503232521 24 178 4.8 6.4 0.00 0.00 0.00 41 1019.0
20260503232018 24 162 6.4 6.4 0.00 0.00 0.00 42 1019.2
20260503231516 24 162 9.7 11.3 0.00 0.00 0.00 41 1019.1
20260503231012 24 136 6.4 9.7 0.00 0.00 0.00 41 1018.9